This demonstration page uses our WeatherBlox Daily Observations layout. Learn more.

40.92945, -100.16068

Hourly Observations for January 17, 2017

Temp ( °F °C ) Dew Point ( °F °C ) Humidity (%) Winds ( mph kmh ) Pressure ( in mb ) Visibility ( mi km ) Precip ( " mm )
12:15 am 00:15 Clear 29 -1.8 23 -5 79 79 WNW 9 15 30.15 1021 10 16.0934 0 0
12:35 am 00:35 Clear 28 -2.1 23 -5.1 80 80 WNW 8 13 30.18 1022 10 16.0934 0 0
12:55 am 00:55 Clear 28 -2.5 22 -5.3 81 81 WNW 8 13 30.18 1022 10 16.0934 0 0
1:15 am 01:15 Clear 27 -2.7 23 -5.2 83 83 WNW 8 13 30.18 1022 10 16.0934 0 0
1:35 am 01:35 Clear 27 -3 22 -5.5 83 83 WNW 9 15 30.18 1022 10 16.0934 0 0
1:55 am 01:55 Clear 26 -3.1 22 -5.7 82 82 WNW 8 13 30.18 1022 10 16.0934 0 0
2:15 am 02:15 Clear 26 -3.5 22 -5.7 85 85 WNW 8 13 30.18 1022 10 16.0934 0 0
2:35 am 02:35 Clear 26 -3.6 21 -6 84 84 WNW 9 15 30.18 1022 10 16.0934 0 0
2:55 am 02:55 Clear 26 -3.6 21 -6 84 84 WNW 12 19 30.18 1022 10 16.0934 0 0
3:15 am 03:15 Clear 25 -3.8 21 -6.1 84 84 WNW 8 13 30.18 1022 10 16.0934 0 0
3:35 am 03:35 Clear 25 -3.9 21 -6.2 84 84 WNW 9 15 30.18 1022 10 16.0934 0 0
3:55 am 03:55 Clear 26 -3.6 21 -6.1 83 83 WNW 9 15 30.18 1022 10 16.0934 0 0
4:15 am 04:15 Clear 26 -3.6 21 -6.3 82 82 WNW 10 17 30.18 1022 10 16.0934 0 0
4:35 am 04:35 Clear 26 -3.6 20 -6.5 81 81 WNW 10 17 30.18 1022 10 16.0934 0 0
4:55 am 04:55 Clear 26 -3.6 20 -6.5 81 81 WNW 9 15 30.18 1022 10 16.0934 0 0
5:15 am 05:15 Clear 25 -3.8 20 -6.5 82 82 WNW 9 15 30.18 1022 10 16.0934 0 0
5:35 am 05:35 Clear 25 -4 20 -6.5 83 83 WNW 9 15 30.18 1022 10 16.0934 0 0
5:55 am 05:55 Clear 25 -4.1 20 -6.5 84 84 WNW 9 15 30.18 1022 10 16.0934 0 0
6:15 am 06:15 Clear 25 -4 20 -6.5 83 83 WNW 8 13 30.18 1022 10 16.0934 0 0
6:35 am 06:35 Clear 25 -4.1 20 -6.5 84 84 WNW 9 15 30.18 1022 10 16.0934 0 0
6:55 am 06:55 Clear 25 -3.9 20 -6.5 82 82 WNW 8 13 30.18 1022 10 16.0934 0 0
7:15 am 07:15 Clear 25 -3.7 20 -6.4 82 82 WNW 8 13 30.18 1022 10 16.0934 0 0
7:35 am 07:35 Clear 24 -4.2 20 -6.6 84 84 WNW 7 11 30.18 1022 10 16.0934 0 0
7:55 am 07:55 Clear 24 -4.7 20 -6.8 85 85 WNW 8 13 30.18 1022 10 16.0934 0 0
8:15 am 08:15 Sunny 24 -4.5 20 -6.7 85 85 NW 9 15 30.18 1022 10 16.0934 0 0
8:35 am 08:35 Sunny 24 -4.4 20 -6.6 85 85 NW 9 15 30.21 1023 10 16.0934 0 0
8:55 am 08:55 Sunny 26 -3.5 21 -6.1 82 82 NW 9 15 30.21 1023 10 16.0934 0 0
9:15 am 09:15 Sunny 27 -3 21 -5.9 81 81 WNW 10 17 30.21 1023 10 16.0934 0 0
9:35 am 09:35 Sunny 28 -2.5 22 -5.6 80 80 WNW 12 19 30.21 1023 10 16.0934 0 0
9:55 am 09:55 Sunny 29 -1.7 23 -5.2 77 77 WNW 9 15 30.18 1022 10 16.0934 0 0
10:15 am 10:15 Sunny 31 -0.8 24 -4.5 76 76 WNW 10 17 30.21 1023 10 16.0934 0 0
10:35 am 10:35 Sunny 31 -0.3 24 -4.4 74 74 WNW 9 15 30.21 1023 10 16.0934 0 0
10:55 am 10:55 Sunny 32 0.1 24 -4.2 73 73 WNW 10 17 30.21 1023 10 16.0934 0 0
11:15 am 11:15 Sunny 33 0.8 26 -3.5 73 73 WNW 7 11 30.18 1022 10 16.0934 0 0
11:35 am 11:35 Sunny 35 1.4 26 -3.4 71 71 WNW 8 13 30.15 1021 10 16.0934 0 0
11:55 am 11:55 Sunny 36 2.1 27 -2.8 70 70 W 6 9 30.15 1021 10 16.0934 0 0
12:15 pm 12:15 Sunny 37 2.7 27 -3 66 66 W 6 9 30.12 1020 10 16.0934 0 0
12:35 pm 12:35 Sunny 38 3.6 28 -2.3 66 66 W 3 6 30.12 1020 10 16.0934 0 0
12:55 pm 12:55 Sunny 39 4.1 28 -2.1 64 64 WNW 6 9 30.09 1019 10 16.0934 0 0
1:15 pm 13:15 Sunny 40 4.5 29 -1.9 64 64 WNW 6 9 30.09 1019 10 16.0934 0 0
1:35 pm 13:35 Sunny 41 5 31 -0.7 67 67 WNW 6 9 30.09 1019 10 16.0934 0 0
1:55 pm 13:55 Sunny 42 5.6 31 -0.6 65 65 NW 3 6 30.09 1019 10 16.0934 0 0
2:15 pm 14:15 Sunny 43 6.2 31 -0.7 62 62 WNW 3 6 30.09 1019 10 16.0934 0 0
2:35 pm 14:35 Sunny 44 6.8 31 -0.4 60 60 WNW 5 7 30.09 1019 10 16.0934 0 0
2:55 pm 14:55 Sunny 44 6.7 31 -0.6 60 60 WNW 5 7 30.09 1019 10 16.0934 0 0
3:15 pm 15:15 Sunny 45 7.2 31 -0.3 59 59 WNW 3 6 30.06 1018 10 16.0934 0 0
3:35 pm 15:35 Sunny 46 7.6 31 -0.3 58 58 W 3 6 30.06 1018 10 16.0934 0 0
3:55 pm 15:55 Sunny 46 7.8 31 -0.8 55 55 W 5 7 30.06 1018 10 16.0934 0 0
4:15 pm 16:15 Sunny 46 7.8 32 -0.2 57 57 W 3 6 30.06 1018 10 16.0934 0 0
4:35 pm 16:35 Sunny 46 7.7 31 -0.5 56 56 Calm 30.06 1018 10 16.0934 0 0
4:55 pm 16:55 Sunny 46 7.8 31 -0.3 57 57 Calm 30.06 1018 10 16.0934 0 0
5:15 pm 17:15 Sunny 44 6.6 30 -1.1 58 58 WSW 5 7 30.09 1019 10 16.0934 0 0
5:35 pm 17:35 Sunny 40 4.5 28 -2.1 63 63 SW 6 9 30.09 1019 10 16.0934 0 0
5:55 pm 17:55 Clear 39 3.7 27 -2.8 63 63 SW 7 11 30.12 1020 10 16.0934 0 0
6:15 pm 18:15 Clear 38 3.1 27 -2.7 66 66 SW 7 11 30.12 1020 10 16.0934 0 0
6:35 pm 18:35 Clear 37 2.5 26 -3.3 66 66 SW 7 11 30.12 1020 10 16.0934 0 0
6:55 pm 18:55 Clear 34 1.3 26 -3.5 71 71 S 5 7 30.12 1020 10 16.0934 0 0
7:15 pm 19:15 Clear 35 1.4 26 -3.4 71 71 SW 6 9 30.12 1020 10 16.0934 0 0
7:35 pm 19:35 Clear 35 1.5 27 -3 72 72 Calm 30.12 1020 10 16.0934 0 0
7:55 pm 19:55 Clear 35 1.5 26 -3.1 72 72 Calm 30.12 1020 10 16.0934 0 0
8:15 pm 20:15 Clear 35 1.6 27 -3 72 72 SSW 3 6 30.12 1020 10 16.0934 0 0
8:35 pm 20:35 Clear 35 1.5 26 -3.3 71 71 SSW 5 7 30.12 1020 10 16.0934 0 0
8:55 pm 20:55 Clear 34 0.9 26 -3.1 75 75 SSW 6 9 30.15 1021 10 16.0934 0 0
9:15 pm 21:15 Clear 34 1.1 27 -3 74 74 SW 6 9 30.12 1020 10 16.0934 0 0
9:35 pm 21:35 Clear 33 0.4 26 -3.3 77 77 SW 3 6 30.15 1021 10 16.0934 0 0
9:55 pm 21:55 Clear 33 0.4 26 -3.3 77 77 SSW 5 7 30.15 1021 10 16.0934 0 0
10:15 pm 22:15 Clear 34 1 27 -2.7 77 77 SSW 8 13 30.12 1020 10 16.0934 0 0
10:35 pm 22:35 Clear 36 2.1 28 -2.4 72 72 SW 9 15 30.12 1020 10 16.0934 0 0
10:55 pm 22:55 Clear 36 2 28 -2.5 72 72 SW 12 19 30.12 1020 10 16.0934 0 0
11:15 pm 23:15 Clear 36 2 28 -2.5 72 72 SW 10 17 30.12 1020 10 16.0934 0 0
11:35 pm 23:35 Clear 35 1.8 27 -2.6 73 73 SSW 10 17 30.12 1020 10 16.0934 0 0
11:55 pm 23:55 Clear 35 1.7 28 -2.5 74 74 SW 12 19 30.12 1020 10 16.0934 0 0

Powered by AerisWeather